Location: Unspecified
(49.2170°N, 0.0000°E)
Time: 15:59:34
(UTC+00:00)

Vanguard 1 - Pass Details

Date: 18 June 2021
Orbit: 651 x 3832 km, 34.2° (Epoch: 23 July)

Event Time Altitude Azimuth Distance (km) Brightness Sun altitude
Rises 01:53:30 0° 268° (W) 7,265 14.2 -13.2°
Reaches altitude 10° 01:59:36 10° 261° (W) 5,775 13.6 -12.7°
Maximum altitude 02:12:39 32° 207° (SSW) 3,016 12.0 -11.7°
Drops below altitude 10° 02:20:39 10° 148° (SSE) 3,492 12.6 -11.0°
Sets 02:23:20 0° 137° (SE) 4,137 13.1 -10.8°
